Printer-friendly version

IAU Minor Planet Center

Minor Planet Center

MPEC 2005-W06 : 2005 WA

The following Minor Planet Electronic Circular may be linked-to from your own Web pages, but must not otherwise be redistributed electronically.


Read MPEC 2005-W05 Read MPEC 2005-W07


M.P.E.C. 2005-W06                                Issued 2005 Nov. 17, 11:36 UT

     The Minor Planet Electronic Circulars contain information on unusual
         minor planets and routine data on comets.  They are published
   on behalf of Commission 20 of the International Astronomical Union by the
          Minor Planet Center, Smithsonian Astrophysical Observatory,
                          Cambridge, MA 02138, U.S.A.

                  Supported in part by the Brinson Foundation
                  Supported in part by the TABASGO Foundation
             Prepared using the Tamkin Foundation Computer Network

                              MPC@CFA.HARVARD.EDU
          URL http://cfa-www.harvard.edu/iau/mpc.html  ISSN 1523-6714

                                    2005 WA

Observations:
     K05W00A* C2005 11 16.61572 04 38 31.16 -39 22 16.8          16.9 V EW006E12
     K05W00A  C2005 11 16.62452 04 38 24.57 -39 18 58.7          16.9 V EW006E12
     K05W00A  C2005 11 16.63315 04 38 18.09 -39 15 43.9          17.0 V EW006E12
     K05W00A  C2005 11 16.64181 04 38 11.58 -39 12 29.5          16.8 V EW006E12
     K05W00A  C2005 11 16.68590 04 37 39.72 -38 55 56.4          18.5 V EW006E12
     K05W00A  C2005 11 16.68619 04 37 39.39 -38 55 49.5          17.4 V EW006E12
     K05W00A  C2005 11 16.68651 04 37 39.18 -38 55 42.2          17.6 V EW006E12
     K05W00A  C2005 11 16.68681 04 37 38.96 -38 55 35.9          17.4 V EW006E12
     K05W00A  C2005 11 16.72436 04 37 13.18 -38 41 30.4          17.3 V EW006E12
     K05W00A  C2005 11 16.72465 04 37 13.11 -38 41 24.8          17.7 V EW006E12
     K05W00A  C2005 11 16.72498 04 37 12.82 -38 41 16.5          17.2 V EW006E12
     K05W00A  C2005 11 16.72528 04 37 12.64 -38 41 10.2          17.8 V EW006E12
     K05W00A  C2005 11 16.74653 04 36 58.77 -38 33 13.2          17.3 V EW006E12
     K05W00A  C2005 11 16.74685 04 36 58.69 -38 33 04.8          17.0 V EW006E12
     K05W00A  C2005 11 16.74714 04 36 58.46 -38 33 00.3          17.4 V EW006E12
     K05W00A  C2005 11 16.74748 04 36 58.34 -38 32 52.7          16.9 V EW006E12
     K05W00A  C2005 11 17.28797 04 33 45.81 -35 48 05.7          18.2 R EW006854
     K05W00A  C2005 11 17.29178 04 33 43.82 -35 47 02.9          18.2 R EW006854
     K05W00A  C2005 11 17.29561 04 33 41.68 -35 45 58.5          18.2 R EW006854
     K05W00A 5C2005 11 17.33630 04 33 23.22 -35 34 42.2          17.2 R EW006673
     K05W00A 5C2005 11 17.34126 04 33 20.65 -35 33 20.8                 EW006673
     K05W00A 5C2005 11 17.35619 04 33 12.80 -35 29 12.8                 EW006673
     K05W00A 5C2005 11 17.36222 04 33 09.65 -35 27 33.3                 EW006673
     K05W00A 5C2005 11 17.37396 04 33 03.56 -35 24 18.2                 EW006673
     K05W00A 5C2005 11 17.38303 04 32 58.84 -35 21 47.4                 EW006673
     K05W00A  C2005 11 17.41877 04 33 17.82 -35 03 52.6          17.4 V EW006E12
     K05W00A  C2005 11 17.41906 04 33 17.74 -35 03 47.6          17.5 V EW006E12
     K05W00A  C2005 11 17.41936 04 33 17.56 -35 03 43.8          17.5 V EW006E12
     K05W00A  C2005 11 17.41965 04 33 17.46 -35 03 39.2          17.3 V EW006E12
     K05W00A  C2005 11 17.41995 04 33 17.35 -35 03 34.7          17.1 V EW006E12

Observer details:
673 Table Mountain Observatory, Wrightwood.  Observer J. Young.  0.6-m f/16
    Cassegrain + CCD.
854 Sabino Canyon Observatory, Tucson.  Observer J. E. McGaha.  0.36-m f/10.0
    Schmidt-Cassegrain + CCD.
E12 Siding Spring Survey.  Observer R. H. McNaught.  Measurers E. C. Beshore,
    E. J. Christensen, G. J. Garradd, A. D. Grauer, R. E. Hill, R. A. Kowalski,
    S. M. Larson, R. H. McNaught.  0.5-m Uppsala Schmidt + CCD.

Orbital elements:
2005 WA
Epoch 2005 Aug. 18.0 TT = JDT 2453600.5                 MPC
M 334.32867              (2000.0)            P               Q
n   0.83088871     Peri.  113.28607     +0.94018066     +0.32340921
a   1.1205747      Node   228.03016     -0.34065828     +0.88925097
e   0.2260668      Incl.    8.28090     -0.00350062     +0.32347981
P   1.19           H   24.0           G   0.15           U   6
Residuals in seconds of arc
051116 E12  0.2-  0.3-    051116 E12  0.2-  0.5+    051117 673  0.1+  0.1-
051116 E12  0.3+  0.3-    051116 E12  0.0   0.1+    051117 673  0.2+  0.3+
051116 E12  0.2+  0.3+    051116 E12  0.8-  0.0     051117 673  0.3+  0.3-
051116 E12  0.6-  0.3-    051116 E12  0.6+  1.3+    051117 673  0.7+  0.2-
051116 E12  1.0+  0.1-    051116 E12  0.1+  0.7-    051117 673  0.4+  0.2-
051116 E12  0.5-  0.2+    051116 E12  1.2+  0.8-    051117 E12  0.0   0.2-
051116 E12  0.3-  0.3+    051117 854  0.7-  0.3-    051117 E12  0.4+  0.5+
051116 E12  0.4-  0.1-    051117 854  0.0   0.9-    051117 E12  0.3-  0.2-
051116 E12  0.8-  0.5+    051117 854  1.0-  0.2-    051117 E12  0.1-  0.1+
051116 E12  0.6+  0.4-    051117 673  0.5-  0.7+    051117 E12  0.0   0.1+

Ephemeris:
2005 WA                  a,e,i = 1.12, 0.23, 8                   q = 0.8673
Date    TT    R. A. (2000) Decl.     Delta      r     Elong.  Phase     V
2005 11 16    04 45.21   -43 48.8    0.0157   0.996   114.9    64.3    17.2
2005 11 18    04 30.00   -32 45.5    0.0240   1.003   126.3    52.6    17.8
2005 11 20    04 24.00   -27 24.9    0.0328   1.010   131.8    46.8    18.4
2005 11 22    04 20.72   -24 16.2    0.0418   1.018   135.0    43.3    18.8
2005 11 24    04 18.61   -22 09.8    0.0509   1.025   137.0    41.0    19.2
2005 11 26    04 17.11   -20 36.8    0.0601   1.033   138.4    39.4    19.5
2005 11 28    04 15.99   -19 23.5    0.0694   1.040   139.3    38.2    19.8
2005 11 30    04 15.13   -18 22.4    0.0787   1.048   140.0    37.3    20.1
2005 12 02    04 14.48   -17 29.1    0.0882   1.055   140.3    36.6    20.3
2005 12 04    04 14.00   -16 41.0    0.0978   1.063   140.5    36.1    20.6
2005 12 06    04 13.68   -15 56.4    0.107    1.071   140.6    35.8    20.8
2005 12 08    04 13.51   -15 14.3    0.117    1.078   140.5    35.6    21.0
2005 12 10    04 13.48   -14 34.0    0.127    1.086   140.3    35.4    21.2
2005 12 12    04 13.57   -13 54.9    0.137    1.093   140.0    35.4    21.3
2005 12 14    04 13.79   -13 16.7    0.148    1.101   139.6    35.5    21.5
2005 12 16    04 14.13   -12 39.1    0.158    1.108   139.1    35.6    21.7

Timothy B. Spahr             (C) Copyright 2005 MPC           M.P.E.C. 2005-W06

Read MPEC 2005-W05 Read MPEC 2005-W07


Our Web policy. Index to the CBAT/MPC/ICQ pages.


Valid HTML 4.01!